Time,TemperatureF,DewpointF,PressureIn,WindDirection,WindDirectionDegrees,WindSpeedMPH,WindSpeedGustMPH,Humidity,HourlyPrecipIn,Conditions,Clouds,dailyrainin,SoftwareType,DateUTC
2013-02-12 11:42:00,36.0,28.0,30.06,NE,45,3.0,4.0,71,-99.99,,,-99.99,,2013-02-12 17:42:00,
2013-02-12 11:52:00,37.0,27.0,30.06,ENE,67,3.0,6.0,68,-99.99,,,-99.99,,2013-02-12 17:52:00,
2013-02-12 12:01:00,38.0,29.0,30.05,NE,45,2.0,5.0,71,-99.99,,,-99.99,,2013-02-12 18:01:00,
2013-02-12 12:11:00,38.0,27.0,30.05,NE,45,4.0,7.0,65,-99.99,,,-99.99,,2013-02-12 18:11:00,
2013-02-12 12:22:00,38.0,28.0,30.05,ENE,67,4.0,6.0,67,-99.99,,,-99.99,,2013-02-12 18:22:00,
2013-02-12 12:31:00,38.0,27.0,30.06,ENE,67,4.0,6.0,63,-99.99,,,-99.99,,2013-02-12 18:31:00,
2013-02-12 12:41:00,39.0,26.0,30.06,ESE,112,1.0,4.0,61,-99.99,,,-99.99,,2013-02-12 18:41:00,
2013-02-12 12:51:00,38.0,25.0,30.06,ENE,67,3.0,7.0,60,-99.99,,,-99.99,,2013-02-12 18:51:00,
2013-02-12 13:02:00,39.0,27.0,30.05,ENE,67,3.0,5.0,62,-99.99,,,-99.99,,2013-02-12 19:02:00,
2013-02-12 13:11:00,40.0,27.0,30.05,NNE,22,2.0,4.0,62,-99.99,,,-99.99,,2013-02-12 19:11:00,
2013-02-12 13:21:00,40.0,27.0,30.05,SE,135,2.0,4.0,59,-99.99,,,-99.99,,2013-02-12 19:21:00,
2013-02-12 13:31:00,40.0,27.0,30.05,ESE,112,2.0,4.0,58,-99.99,,,-99.99,,2013-02-12 19:31:00,
2013-02-12 13:41:00,40.0,27.0,30.04,North,0,1.0,3.0,58,-99.99,,,-99.99,,2013-02-12 19:41:00,
2013-02-12 13:51:00,40.0,27.0,30.02,North,0,4.0,6.0,59,-99.99,,,-99.99,,2013-02-12 19:51:00,
2013-02-12 14:01:00,40.0,26.0,30.02,SE,135,3.0,4.0,57,-99.99,,,-99.99,,2013-02-12 20:01:00,
2013-02-12 14:11:00,41.0,27.0,30.02,North,0,0.0,-999.0,58,-99.99,,,-99.99,,2013-02-12 20:11:00,
2013-02-12 14:21:00,41.0,27.0,30.02,East,90,2.0,3.0,57,-99.99,,,-99.99,,2013-02-12 20:21:00,
2013-02-12 14:31:00,41.0,26.0,30.02,ENE,67,2.0,3.0,56,-99.99,,,-99.99,,2013-02-12 20:31:00,
2013-02-12 14:41:00,41.0,27.0,30.02,East,90,2.0,4.0,56,-99.99,,,-99.99,,2013-02-12 20:41:00,
2013-02-12 14:51:00,41.0,26.0,30.01,NNW,337,2.0,4.0,54,-99.99,,,-99.99,,2013-02-12 20:51:00,
2013-02-12 15:01:00,41.0,27.0,30.00,East,90,1.0,4.0,57,-99.99,,,-99.99,,2013-02-12 21:01:00,
2013-02-12 15:11:00,42.0,27.0,29.99,NNE,22,0.0,-999.0,54,-99.99,,,-99.99,,2013-02-12 21:11:00,
2013-02-12 15:21:00,42.0,27.0,29.99,NW,315,0.0,-999.0,55,-99.99,,,-99.99,,2013-02-12 21:21:00,
2013-02-12 15:31:00,41.0,26.0,29.98,NW,315,0.0,-999.0,54,-99.99,,,-99.99,,2013-02-12 21:31:00,
2013-02-12 15:41:00,41.0,25.0,29.98,East,90,0.0,-999.0,52,-99.99,,,-99.99,,2013-02-12 21:41:00,
2013-02-12 15:51:00,42.0,27.0,29.97,North,0,0.0,-999.0,55,-99.99,,,-99.99,,2013-02-12 21:51:00,
2013-02-12 16:01:00,41.0,25.0,29.97,NE,45,0.0,-999.0,53,-99.99,,,-99.99,,2013-02-12 22:01:00,
2013-02-12 16:12:00,41.0,25.0,29.96,North,0,0.0,-999.0,53,-99.99,,,-99.99,,2013-02-12 22:12:00,
2013-02-12 16:21:00,42.0,26.0,29.96,SSE,157,0.0,-999.0,54,-99.99,,,-99.99,,2013-02-12 22:21:00,
2013-02-12 16:31:00,42.0,26.0,29.97,ENE,67,0.0,-999.0,52,-99.99,,,-99.99,,2013-02-12 22:31:00,
2013-02-12 16:41:00,41.0,25.0,29.96,SSE,157,0.0,-999.0,53,-99.99,,,-99.99,,2013-02-12 22:41:00,
2013-02-12 16:51:00,41.0,26.0,29.96,SSE,157,1.0,3.0,55,-99.99,,,-99.99,,2013-02-12 22:51:00,
2013-02-12 17:01:00,41.0,27.0,29.96,NE,45,0.0,-999.0,59,-99.99,,,-99.99,,2013-02-12 23:01:00,
2013-02-12 17:11:00,41.0,29.0,29.95,North,0,0.0,-999.0,63,-99.99,,,-99.99,,2013-02-12 23:11:00,
2013-02-12 17:21:00,40.0,28.0,29.95,SE,135,0.0,-999.0,62,-99.99,,,-99.99,,2013-02-12 23:21:00,
2013-02-12 17:31:00,40.0,29.0,29.95,SE,135,0.0,-999.0,64,-99.99,,,-99.99,,2013-02-12 23:31:00,
2013-02-12 17:41:00,40.0,25.0,29.95,SSE,157,0.0,-999.0,56,-99.99,,,-99.99,,2013-02-12 23:41:00,
2013-02-12 17:52:00,40.0,25.0,29.95,SSE,157,0.0,-999.0,55,-99.99,,,-99.99,,2013-02-12 23:52:00,
2013-02-12 18:02:00,39.0,26.0,29.94,SSE,157,0.0,-999.0,59,-99.99,,,-99.99,,2013-02-13 00:02:00,
2013-02-12 18:11:00,38.0,29.0,29.93,NE,45,2.0,3.0,69,-99.99,,,-99.99,,2013-02-13 00:11:00,
2013-02-12 18:21:00,38.0,28.0,29.94,NE,45,0.0,-999.0,69,-99.99,,,-99.99,,2013-02-13 00:21:00,
2013-02-12 18:32:00,37.0,29.0,29.94,NNE,22,2.0,3.0,71,-99.99,,,-99.99,,2013-02-13 00:32:00,
2013-02-12 18:42:00,36.0,29.0,29.94,NNE,22,4.0,4.0,74,-99.99,,,-99.99,,2013-02-13 00:42:00,
2013-02-12 18:51:00,36.0,28.0,29.94,NNE,22,4.0,4.0,72,-99.99,,,-99.99,,2013-02-13 00:51:00,
2013-02-12 19:01:00,37.0,27.0,29.94,NE,45,0.0,-999.0,69,-99.99,,,-99.99,,2013-02-13 01:01:00,
2013-02-12 19:11:00,37.0,27.0,29.93,NNE,22,2.0,3.0,67,-99.99,,,-99.99,,2013-02-13 01:11:00,
2013-02-12 19:21:00,37.0,28.0,29.93,NNE,22,3.0,5.0,69,-99.99,,,-99.99,,2013-02-13 01:21:00,
2013-02-12 19:31:00,36.0,29.0,29.93,East,90,4.0,5.0,75,-99.99,,,-99.99,,2013-02-13 01:31:00,
2013-02-12 19:42:00,36.0,28.0,29.93,NNE,22,5.0,6.0,75,-99.99,,,-99.99,,2013-02-13 01:42:00,
2013-02-12 19:51:00,36.0,29.0,29.93,NNE,22,5.0,7.0,75,-99.99,,,-99.99,,2013-02-13 01:51:00,
2013-02-12 20:01:00,36.0,29.0,29.93,NNE,22,4.0,5.0,76,-99.99,,,-99.99,,2013-02-13 02:01:00,
2013-02-12 20:11:00,36.0,29.0,29.93,East,90,2.0,3.0,77,-99.99,,,-99.99,,2013-02-13 02:11:00,
2013-02-12 20:21:00,35.0,29.0,29.93,NNE,22,2.0,3.0,77,-99.99,,,-99.99,,2013-02-13 02:21:00,
2013-02-12 20:31:00,35.0,29.0,29.93,NNE,22,2.0,3.0,77,-99.99,,,-99.99,,2013-02-13 02:31:00,
2013-02-12 20:41:00,35.0,29.0,29.93,NNE,22,0.0,-999.0,78,-99.99,,,-99.99,,2013-02-13 02:41:00,
2013-02-12 20:52:00,35.0,29.0,29.93,NNE,22,2.0,3.0,79,-99.99,,,-99.99,,2013-02-13 02:52:00,
2013-02-12 21:01:00,35.0,29.0,29.93,NNE,22,2.0,3.0,78,-99.99,,,-99.99,,2013-02-13 03:01:00,
2013-02-12 21:11:00,35.0,29.0,29.93,East,90,2.0,2.0,77,-99.99,,,-99.99,,2013-02-13 03:11:00,
2013-02-12 21:21:00,35.0,30.0,29.93,East,90,0.0,-999.0,82,-99.99,,,-99.99,,2013-02-13 03:21:00,
2013-02-12 21:32:00,35.0,30.0,29.93,NW,315,2.0,2.0,83,-99.99,,,-99.99,,2013-02-13 03:32:00,
2013-02-12 21:41:00,35.0,31.0,29.92,NW,315,3.0,4.0,86,-99.99,,,-99.99,,2013-02-13 03:41:00,
2013-02-12 21:51:00,35.0,30.0,29.92,NNW,337,1.0,2.0,84,-99.99,,,-99.99,,2013-02-13 03:51:00,
2013-02-12 22:01:00,35.0,29.0,29.93,NNW,337,0.0,-999.0,79,-99.99,,,-99.99,,2013-02-13 04:01:00,
2013-02-12 22:11:00,35.0,30.0,29.93,WNW,292,0.0,-999.0,82,-99.99,,,-99.99,,2013-02-13 04:11:00,
2013-02-12 22:21:00,35.0,30.0,29.92,WNW,292,0.0,-999.0,82,-99.99,,,-99.99,,2013-02-13 04:21:00,
2013-02-12 22:31:00,35.0,29.0,29.92,WSW,247,1.0,2.0,80,-99.99,,,-99.99,,2013-02-13 04:31:00,
2013-02-12 22:41:00,34.0,29.0,29.93,SW,225,2.0,3.0,82,-99.99,,,-99.99,,2013-02-13 04:41:00,
2013-02-12 22:51:00,34.0,29.0,29.93,SW,225,2.0,3.0,83,-99.99,,,-99.99,,2013-02-13 04:51:00,
2013-02-12 23:01:00,34.0,29.0,29.92,West,270,1.0,3.0,80,-99.99,,,-99.99,,2013-02-13 05:01:00,
2013-02-12 23:11:00,34.0,29.0,29.92,West,270,2.0,3.0,79,-99.99,,,-99.99,,2013-02-13 05:11:00,
2013-02-12 23:22:00,35.0,28.0,29.92,West,270,3.0,4.0,77,-99.99,,,-99.99,,2013-02-13 05:22:00,
2013-02-12 23:31:00,34.0,28.0,29.92,West,270,3.0,4.0,77,-99.99,,,-99.99,,2013-02-13 05:31:00,
2013-02-12 23:41:00,34.0,29.0,29.92,WNW,292,4.0,5.0,82,-99.99,,,-99.99,,2013-02-13 05:41:00,
2013-02-12 23:52:00,35.0,28.0,29.91,West,270,3.0,5.0,76,-99.99,,,-99.99,,2013-02-13 05:52:00,